This is the latest recevied weather packets stored in our database for station/object KD2RHT-13. If no packets are shown the sender has not sent any weather packets the latest 10 day(s).
| Time | Temp. | Humidity | Pressure | Rain* | Wind** | Luminosity | Snow |
|---|---|---|---|---|---|---|---|
| 1777157184 | 8.33° C | 99% | 1017.6 hPa | 0 mm | - | 16 W/m² | - |
| 1777156883 | 8.33° C | 99% | 1017.6 hPa | 0 mm | - | 17 W/m² | - |
| 1777156578 | 8.33° C | 99% | 1017.3 hPa | 0 mm | - | 21 W/m² | - |
| 1777156275 | 8.33° C | 99% | 1017.6 hPa | 0 mm | - | 29 W/m² | - |
| 1777155972 | 8.33° C | 99% | 1017.3 hPa | 0 mm | - | 33 W/m² | - |
| 1777155668 | 8.89° C | 99% | 1017.3 hPa | 0 mm | - | 28 W/m² | - |
| 1777155364 | 8.89° C | 99% | 1017.3 hPa | 0 mm | - | 30 W/m² | - |
| 1777155061 | 8.89° C | 99% | 1017.6 hPa | 1.78 mm | - | 41 W/m² | - |
| 1777154759 | 8.89° C | 98% | 1017.3 hPa | 1.78 mm | - | 37 W/m² | - |
| 1777154454 | 8.89° C | 98% | 1017.3 hPa | 0 mm | - | 35 W/m² | - |
| 1777154149 | 8.33° C | 98% | 1016.9 hPa | 0 mm | - | 39 W/m² | - |
| 1777153847 | 8.89° C | 98% | 1016.9 hPa | 0 mm | - | 39 W/m² | - |
| 1777153543 | 8.89° C | 98% | 1016.6 hPa | 1.27 mm | - | 44 W/m² | - |
| 1777153238 | 8.89° C | 98% | 1016.9 hPa | 1.27 mm | - | 39 W/m² | - |
| 1777152936 | 8.89° C | 97% | 1016.6 hPa | 0 mm | - | 38 W/m² | - |
| 1777152632 | 8.89° C | 97% | 1016.6 hPa | 1.78 mm | - | 49 W/m² | - |
| 1777152329 | 8.89° C | 97% | 1016.6 hPa | 1.78 mm | - | 44 W/m² | - |
| 1777152024 | 8.89° C | 96% | 1016.2 hPa | 0 mm | - | 41 W/m² | - |
| 1777151720 | 8.89° C | 96% | 1016.2 hPa | 0 mm | - | 35 W/m² | - |
| 1777151417 | 8.89° C | 96% | 1016.6 hPa | 0 mm | - | 38 W/m² | - |
| 1777151112 | 8.89° C | 96% | 1016.2 hPa | 0 mm | - | 51 W/m² | - |
| 1777150808 | 8.89° C | 95% | 1016.2 hPa | 0 mm | - | 56 W/m² | - |
| 1777150502 | 8.89° C | 95% | 1016.2 hPa | 0 mm | - | 52 W/m² | - |
| 1777150198 | 8.89° C | 95% | 1016.2 hPa | 0 mm | - | 55 W/m² | - |
| 1777149897 | 8.89° C | 95% | 1015.9 hPa | 0 mm | - | 62 W/m² | - |
* Rain latest hour (hover to see other rain measurements)
** Current wind speed in m/s (hover to see current wind gust speed)